SHIJIAN-21 (SJ-21) (49330 NORAD) Tracking and Keplerian Element Data

This shows tracking and keplerian element data for the satellite.

Feedback or suggestion? Click here.




ElementValue
Catalog49330
NameSHIJIAN-21 (SJ-21)
Epoch Orbit108
Epoch Day339.87688206
Epoch Year2021
RAAN50.8495
Inclination8.1723
Eccentricity0.0002304
Argument of Perigee17.271
Mean Anonmoly83.1214
Mean Motion0.99960449
Decay Rate-3.56E-06
L11 49330U 21094A 21339.87688206 -.00000356 00000+0 00000+0 0 9991
L22 49330 8.1723 50.8495 0002304 17.2710 83.1214 0.99960449 1088

Live tracking and technical data element details for SHIJIAN-21 (SJ-21) (NORAD 49330). SHIJIAN-21 (SJ-21) can be tracked NOW for your location showing map with azimuth and elevation plus other details from your city location.

Track the satellite on the map from your city or location and see movement details for azimuth, elevation, latitude, longitude, range, height, and movement on the map or in text.







IsCatalogInMostPopularTable: catalog: 49330, numindb: 6
Update: records affected: 1



GetName: 49330 SHIJIAN-21 (SJ-21)

Hit Count: updated at: Mon, 06 Dec 2021 14:26:56 GMT